Find Starlink 38319

NORAD ID: 100441 Int'l Des: 2026-193 Owner: SPXS Country: US Constellation: starlink operational

当前视图

正在加载3D地球...

About Starlink 38319

Starlink 38319 (NORAD 100441) is a starlink constellation satellite launched Aug 22, 2026 by SPXS of US. with a mass of 575.00 kg.

即将过境

Passes for default location (London). Set your location on the main map for personalized predictions.

高度历史

Loading altitude history...

两行轨道根数

1 A0441U 26193J 26262.88173645 .00031616 00000-0 53033-3 0 9994
2 A0441 70.0003 76.2208 0003475 270.8269 89.2519 15.51674037 5647
Epoch: Sep 19, 2026 • Age: 17 hours

当前状态

高度 416.4 km
远地点 / 近地点 N/A
速度 7.66 km/s
星下点 -13.57°S, 141.98°W
发射日期 Aug 22, 2026
运行时间 29 days
类型 internet

技术详情

分类 Payload
质量 575.00 kg
干质量 530.00 kg
长度 0.30 m
跨度 29.00 m
形状 ? Box + pan
制造商 SPXS
平台类型 Starlink V2MO
阶段状态 In Orbit
所有者/国家 SPXS/US

Most Searched